Find Starlink 11493

NORAD ID: 62410 Int'l Des: 2024-249 Owner: SPXS Country: US Constellation: starlink operational
LEOCIRCULAR

Current View

Loading 3D Globe...

About Starlink 11493

Starlink 11493 (NORAD 62410) is a starlink constellation satellite (v2 mini d2c) launched Dec 23, 2024 by SPXS of US. It operates in LEO, CIRCULAR orbit with a mass of 960.00 kg.

About Starlink 11493

Description loading...

Upcoming Passes

Passes for default location (London). Set your location on the main map for personalized predictions.

Altitude History

Loading altitude history...

Two-Line Element Set

1 62410U 24249B 26169.26144862 .00170450 00000-0 13042-2 0 9990
2 62410 42.9994 281.8314 0004569 335.6194 24.4457 15.70842275 85295
Epoch: Jun 18, 2026 • Age: 6 hours

Current Status

Altitude 353.9 km
Velocity 7.70 km/s
Sub-Earth Point 21.07°N, 149.93°W
Launch Date Dec 23, 2024
Age 1.4 years
Type internet

Technical Details

Classification Payload
Mass 960.00 kg
Dry Mass 910.00 kg
Total Mass 960.00 kg
Length 0.30 m
Diameter 4.10 m
Span 29.00 m
Shape Box + pan
Manufacturer SPXS
Bus Type Starlink V2MD
Phase Status In Orbit
Owner/State SPXS/US

Most Searched